{"data":{"norad_id":64261,"epoch":"2026-09-20T08:51:28.926720Z","epoch_age_seconds":148808,"freshness":"FRESH","line1":"1 64261U 25120F   26263.36908480  .00014098  00000+0  42758-3 0  9996","line2":"2 64261  53.1610 286.6663 0001278  86.2269 273.8880 15.34401546 73699","mean_motion":15.34401546,"eccentricity":0.0001278,"inclination_deg":53.161,"raan_deg":286.6663,"arg_perigee_deg":86.2269,"mean_anomaly_deg":273.888,"bstar":0.00042758,"rev_number":7369,"period_min":93.847663524187,"perigee_km":461.82438637771,"apogee_km":463.57290396861,"semimajor_km":6840.8356451732,"source":"CELESTRAK","updated_at":"2026-09-21T09:00:35.282378Z"}}